Time,TemperatureF,DewpointF,PressureIn,WindDirection,WindDirectionDegrees,WindSpeedMPH,WindSpeedGustMPH,Humidity,HourlyPrecipIn,Conditions,Clouds,dailyrainin,SoftwareType,DateUTC
2013-02-01 00:29:00,44.2,44.2,30.13,SSW,209,0.0,0.0,100,0.00,,---,0.00,VWS V13.01,2013-02-01 08:29:00,
2013-02-01 00:59:00,43.6,43.6,30.14,SSW,209,0.0,0.0,100,0.00,,---,0.00,VWS V13.01,2013-02-01 08:59:00,
2013-02-01 01:29:00,43.5,43.5,30.15,SSW,209,0.0,0.0,100,0.00,,---,0.00,VWS V13.01,2013-02-01 09:29:00,
2013-02-01 01:59:00,42.9,42.9,30.15,SSW,209,0.0,0.0,100,0.00,,---,0.00,VWS V13.01,2013-02-01 09:59:00,
2013-02-01 02:29:00,42.1,42.1,30.15,SSW,209,0.0,0.0,100,0.00,,---,0.00,VWS V13.01,2013-02-01 10:29:00,
2013-02-01 02:59:00,41.6,41.6,30.15,SSW,209,0.0,0.0,100,0.00,,---,0.00,VWS V13.01,2013-02-01 10:59:00,
2013-02-01 03:29:00,41.1,41.1,30.15,SSW,209,0.0,0.0,100,0.00,,---,0.00,VWS V13.01,2013-02-01 11:29:00,
2013-02-01 03:59:00,41.1,41.1,30.14,SSW,209,0.0,1.0,100,0.00,,---,0.00,VWS V13.01,2013-02-01 11:59:00,
2013-02-01 04:29:00,41.1,41.1,30.14,SSW,209,0.0,0.0,100,0.00,,---,0.00,VWS V13.01,2013-02-01 12:29:00,
2013-02-01 04:59:00,40.8,40.8,30.14,SSW,209,1.0,1.0,100,0.00,,---,0.00,VWS V13.01,2013-02-01 12:59:00,
2013-02-01 05:29:00,40.5,40.5,30.15,SSW,209,0.0,1.0,100,0.00,,---,0.00,VWS V13.01,2013-02-01 13:29:00,
2013-02-01 05:59:00,40.1,40.1,30.14,SSW,209,0.0,1.0,100,0.00,,---,0.00,VWS V13.01,2013-02-01 13:59:00,
2013-02-01 06:29:00,40.6,40.6,30.16,SSW,209,0.0,1.0,100,0.00,,---,0.00,VWS V13.01,2013-02-01 14:29:00,
2013-02-01 06:59:00,40.2,40.2,30.15,SSW,209,0.0,1.0,100,0.00,,---,0.00,VWS V13.01,2013-02-01 14:59:00,
2013-02-01 07:29:00,40.2,40.2,30.15,SSW,209,0.0,1.0,100,0.00,,---,0.00,VWS V13.01,2013-02-01 15:29:00,
2013-02-01 07:59:00,39.8,39.8,30.15,SSW,209,0.0,0.0,100,0.00,,---,0.00,VWS V13.01,2013-02-01 15:59:00,
2013-02-01 08:29:00,42.5,42.5,30.15,SSW,209,0.0,2.0,100,0.00,,---,0.00,VWS V13.01,2013-02-01 16:29:00,
2013-02-01 08:59:00,47.6,47.6,30.16,SSW,209,0.0,1.0,100,0.00,,---,0.00,VWS V13.01,2013-02-01 16:59:00,
2013-02-01 09:29:00,52.3,47.0,30.16,SSW,209,0.0,0.0,82,0.00,,---,0.00,VWS V13.01,2013-02-01 17:29:00,
2013-02-01 09:59:00,55.7,30.5,30.16,SSE,148,0.0,0.0,38,0.00,,---,0.00,VWS V13.01,2013-02-01 17:59:00,
2013-02-01 10:29:00,60.5,5.8,30.15,SSE,148,0.0,0.0,11,0.00,,---,0.00,VWS V13.01,2013-02-01 18:29:00,
2013-02-01 10:59:00,66.3,0.0,30.13,North,356,1.0,5.0,0,0.00,,---,0.00,VWS V13.01,2013-02-01 18:59:00,
2013-02-01 11:29:00,69.4,69.4,30.11,SW,234,3.0,4.0,100,0.00,,---,0.00,VWS V13.01,2013-02-01 19:29:00,
2013-02-01 11:59:00,70.6,70.6,30.10,WSW,240,2.0,7.0,100,0.00,,---,0.00,VWS V13.01,2013-02-01 19:59:00,
2013-02-01 12:29:00,67.3,0.0,30.10,SW,226,2.0,7.0,0,0.00,,---,0.00,VWS V13.01,2013-02-01 20:29:00,
2013-02-01 12:59:00,69.4,69.4,30.08,SW,215,2.0,8.0,100,0.00,,---,0.00,VWS V13.01,2013-02-01 20:59:00,
2013-02-01 13:29:00,64.5,0.0,30.09,WSW,237,6.0,12.0,0,0.00,,---,0.00,VWS V13.01,2013-02-01 21:29:00,
2013-02-01 13:59:00,58.7,14.0,30.10,SSE,165,3.0,8.0,17,0.00,,---,0.00,VWS V13.01,2013-02-01 21:59:00,
2013-02-01 14:29:00,58.0,28.3,30.11,SW,236,3.0,7.0,32,0.00,,---,0.00,VWS V13.01,2013-02-01 22:29:00,
2013-02-01 14:59:00,54.1,45.3,30.13,West,277,5.0,11.0,72,0.00,,---,0.00,VWS V13.01,2013-02-01 22:59:00,
2013-02-01 15:29:00,54.2,45.4,30.13,SSW,196,2.0,6.0,72,0.00,,---,0.00,VWS V13.01,2013-02-01 23:29:00,
2013-02-01 15:59:00,52.5,48.4,30.14,WSW,241,2.0,8.0,86,0.00,,---,0.00,VWS V13.01,2013-02-01 23:59:00,
2013-02-01 16:29:00,51.3,51.3,30.17,SW,233,1.0,8.0,100,0.00,,---,0.00,VWS V13.01,2013-02-02 00:29:00,
2013-02-01 16:59:00,50.1,50.1,30.16,SW,217,0.0,7.0,100,0.00,,---,0.00,VWS V13.01,2013-02-02 00:59:00,
2013-02-01 17:29:00,50.2,50.2,30.16,SSW,195,1.0,4.0,100,0.00,,---,0.00,VWS V13.01,2013-02-02 01:29:00,
2013-02-01 17:59:00,49.8,49.8,30.16,SSW,195,0.0,3.0,100,0.00,,---,0.00,VWS V13.01,2013-02-02 01:59:00,
2013-02-01 18:29:00,49.8,49.8,30.17,SSW,195,1.0,2.0,100,0.00,,---,0.00,VWS V13.01,2013-02-02 02:29:00,
2013-02-01 18:59:00,49.8,49.8,30.16,NW,318,0.0,3.0,100,0.00,,---,0.00,VWS V13.01,2013-02-02 02:59:00,
2013-02-01 19:29:00,48.9,48.9,30.17,NW,318,0.0,0.0,100,0.00,,---,0.00,VWS V13.01,2013-02-02 03:29:00,
2013-02-01 19:59:00,49.2,49.2,30.19,NW,318,0.0,0.0,100,0.00,,---,0.00,VWS V13.01,2013-02-02 03:59:00,
2013-02-01 20:29:00,49.4,49.4,30.19,NW,318,0.0,1.0,100,0.00,,---,0.00,VWS V13.01,2013-02-02 04:29:00,
2013-02-01 20:59:00,49.2,49.2,30.18,NW,318,0.0,2.0,100,0.00,,---,0.00,VWS V13.01,2013-02-02 04:59:00,
2013-02-01 21:29:00,48.2,48.2,30.17,NW,318,0.0,2.0,100,0.00,,---,0.00,VWS V13.01,2013-02-02 05:29:00,
2013-02-01 21:59:00,47.3,47.3,30.18,NW,318,0.0,2.0,100,0.00,,---,0.00,VWS V13.01,2013-02-02 05:59:00,
2013-02-01 22:29:00,46.0,46.0,30.18,NW,318,0.0,0.0,100,0.00,,---,0.00,VWS V13.01,2013-02-02 06:29:00,
2013-02-01 22:59:00,44.6,44.6,30.20,NW,318,0.0,0.0,100,0.00,,---,0.00,VWS V13.01,2013-02-02 06:59:00,
2013-02-01 23:29:00,45.8,45.8,30.20,NW,318,0.0,0.0,100,0.00,,---,0.00,VWS V13.01,2013-02-02 07:29:00,
2013-02-01 23:59:00,46.8,46.8,30.19,NW,318,1.0,2.0,100,0.00,,---,0.00,VWS V13.01,2013-02-02 07:59:00,